Time,TemperatureF,DewpointF,PressureIn,WindDirection,WindDirectionDegrees,WindSpeedMPH,WindSpeedGustMPH,Humidity,HourlyPrecipIn,Conditions,Clouds,dailyrainin,SolarRadiationWatts/m^2,SoftwareType,DateUTC
2013-03-16 00:02:00,19.1,16.9,29.97,NNE,23,7.0,10.0,91,0.00,,,0.00,0,Wunderground v.1.15,2013-03-16 05:02:00,
2013-03-16 00:12:00,19.1,16.7,29.97,NNE,18,7.0,8.0,90,0.00,,,0.00,0,Wunderground v.1.15,2013-03-16 05:12:00,
2013-03-16 00:22:00,19.1,16.7,29.97,NE,48,8.0,10.0,90,0.00,,,0.00,0,Wunderground v.1.15,2013-03-16 05:22:00,
2013-03-16 00:32:00,18.9,16.2,29.96,NNE,30,11.0,11.0,89,0.00,,,0.00,0,Wunderground v.1.15,2013-03-16 05:32:00,
2013-03-16 00:42:00,18.6,16.2,29.96,NE,38,9.0,11.0,90,0.00,,,0.00,0,Wunderground v.1.15,2013-03-16 05:42:00,
2013-03-16 00:52:00,18.6,16.2,29.96,NE,38,8.0,8.0,90,0.00,,,0.00,0,Wunderground v.1.15,2013-03-16 05:52:00,
2013-03-16 01:02:00,18.4,16.0,29.95,North,11,6.0,7.0,90,0.00,,,0.00,0,Wunderground v.1.15,2013-03-16 06:02:00,
2013-03-16 01:12:00,18.1,15.7,29.95,NNE,25,7.0,7.0,90,0.00,,,0.00,0,Wunderground v.1.15,2013-03-16 06:12:00,
2013-03-16 01:22:00,18.0,15.6,29.95,NNE,23,7.0,7.0,90,0.00,,,0.00,0,Wunderground v.1.15,2013-03-16 06:22:00,
2013-03-16 01:32:00,17.8,15.4,29.96,NE,40,6.0,6.0,90,0.00,,,0.00,0,Wunderground v.1.15,2013-03-16 06:32:00,
2013-03-16 01:42:00,17.8,15.4,29.96,NNE,23,6.0,7.0,90,0.00,,,0.00,0,Wunderground v.1.15,2013-03-16 06:42:00,
2013-03-16 01:52:00,17.7,15.3,29.96,NE,35,6.0,7.0,90,0.00,,,0.00,0,Wunderground v.1.15,2013-03-16 06:52:00,
2013-03-16 02:02:00,17.7,15.3,29.95,NE,38,7.0,9.0,90,0.00,,,0.00,0,Wunderground v.1.15,2013-03-16 07:02:00,
2013-03-16 02:12:00,17.7,15.3,29.95,NNE,20,8.0,8.0,90,0.00,,,0.00,0,Wunderground v.1.15,2013-03-16 07:12:00,
2013-03-16 02:22:00,17.7,15.3,29.94,North,3,6.0,7.0,90,0.00,,,0.00,0,Wunderground v.1.15,2013-03-16 07:22:00,
2013-03-16 02:32:00,17.7,15.3,29.93,NE,41,7.0,10.0,90,0.00,,,0.00,0,Wunderground v.1.15,2013-03-16 07:32:00,
2013-03-16 02:42:00,17.7,15.3,29.93,NE,35,8.0,11.0,90,0.00,,,0.00,0,Wunderground v.1.15,2013-03-16 07:42:00,
2013-03-16 02:52:00,17.7,15.0,29.92,NNE,18,7.0,10.0,89,0.00,,,0.00,0,Wunderground v.1.15,2013-03-16 07:52:00,
2013-03-16 03:02:00,17.7,15.0,29.92,NNE,32,7.0,7.0,89,0.00,,,0.00,0,Wunderground v.1.15,2013-03-16 08:02:00,
2013-03-16 03:12:00,17.7,14.8,29.92,NNE,25,7.0,7.0,88,0.00,,,0.00,0,Wunderground v.1.15,2013-03-16 08:12:00,
2013-03-16 03:22:00,17.5,14.6,29.92,North,3,7.0,7.0,88,0.00,,,0.00,0,Wunderground v.1.15,2013-03-16 08:22:00,
2013-03-16 03:32:00,17.7,14.5,29.92,NNE,16,7.0,9.0,87,0.00,,,0.00,0,Wunderground v.1.15,2013-03-16 08:32:00,
2013-03-16 03:42:00,17.7,14.5,29.92,NNE,14,6.0,6.0,87,0.00,,,0.00,0,Wunderground v.1.15,2013-03-16 08:42:00,
2013-03-16 03:52:00,17.7,14.5,29.92,NNE,20,7.0,7.0,87,0.00,,,0.00,0,Wunderground v.1.15,2013-03-16 08:52:00,
2013-03-16 04:02:00,17.8,14.3,29.91,North,10,7.0,11.0,86,0.00,,,0.00,0,Wunderground v.1.15,2013-03-16 09:02:00,
2013-03-16 04:12:00,17.8,13.8,29.91,NNE,23,8.0,11.0,84,0.00,,,0.00,0,Wunderground v.1.15,2013-03-16 09:12:00,
2013-03-16 04:22:00,18.0,14.0,29.91,NE,41,7.0,7.0,84,0.00,,,0.00,0,Wunderground v.1.15,2013-03-16 09:22:00,
2013-03-16 04:32:00,18.1,13.8,29.93,NNE,16,6.0,6.0,83,0.00,,,0.00,0,Wunderground v.1.15,2013-03-16 09:32:00,
2013-03-16 04:42:00,18.1,14.1,29.93,NE,37,6.0,6.0,84,0.00,,,0.00,0,Wunderground v.1.15,2013-03-16 09:42:00,
2013-03-16 04:52:00,18.1,14.4,29.92,North,6,6.0,6.0,85,0.00,,,0.00,0,Wunderground v.1.15,2013-03-16 09:52:00,
2013-03-16 05:02:00,18.0,14.8,29.93,North,1,6.0,6.0,87,0.00,,,0.00,0,Wunderground v.1.15,2013-03-16 10:02:00,
2013-03-16 05:12:00,18.0,15.3,29.93,North,359,5.0,5.0,89,0.00,,,0.00,0,Wunderground v.1.15,2013-03-16 10:12:00,
2013-03-16 05:22:00,17.8,15.4,29.93,NNE,23,6.0,10.0,90,0.00,,,0.00,0,Wunderground v.1.15,2013-03-16 10:22:00,
2013-03-16 05:32:00,18.0,15.8,29.93,NNE,24,6.0,6.0,91,0.00,,,0.00,0,Wunderground v.1.15,2013-03-16 10:32:00,
2013-03-16 05:42:00,18.0,15.8,29.93,North,350,7.0,10.0,91,0.00,,,0.00,0,Wunderground v.1.15,2013-03-16 10:42:00,
2013-03-16 05:52:00,18.1,15.9,29.93,NNE,13,5.0,5.0,91,0.00,,,0.00,0,Wunderground v.1.15,2013-03-16 10:52:00,
2013-03-16 06:12:00,18.1,15.7,29.94,NNE,31,5.0,6.0,90,0.00,,,0.00,0,Wunderground v.1.15,2013-03-16 11:12:00,
2013-03-16 06:22:00,18.3,15.6,29.95,NNE,16,7.0,8.0,89,0.00,,,0.00,0,Wunderground v.1.15,2013-03-16 11:22:00,
2013-03-16 06:32:00,18.3,15.3,29.95,NNE,28,7.0,7.0,88,0.00,,,0.00,0,Wunderground v.1.15,2013-03-16 11:32:00,
2013-03-16 06:42:00,18.3,15.3,29.95,North,359,7.0,7.0,88,0.00,,,0.00,0,Wunderground v.1.15,2013-03-16 11:42:00,
2013-03-16 06:52:00,18.4,15.7,29.95,North,6,6.0,6.0,89,0.00,,,0.00,0,Wunderground v.1.15,2013-03-16 11:52:00,
2013-03-16 07:02:00,18.4,16.0,29.96,North,0,7.0,7.0,90,0.00,,,0.00,0,Wunderground v.1.15,2013-03-16 12:02:00,
2013-03-16 07:12:00,18.4,16.0,29.96,North,10,7.0,7.0,90,0.00,,,0.00,0,Wunderground v.1.15,2013-03-16 12:12:00,
2013-03-16 07:22:00,18.4,15.7,29.97,North,11,7.0,10.0,89,0.00,,,0.00,9,Wunderground v.1.15,2013-03-16 12:22:00,
2013-03-16 07:32:00,18.4,15.7,29.97,North,0,6.0,6.0,89,0.00,,,0.00,16,Wunderground v.1.15,2013-03-16 12:32:00,
2013-03-16 07:42:00,18.6,15.9,29.97,North,0,6.0,6.0,89,0.00,,,0.00,32,Wunderground v.1.15,2013-03-16 12:42:00,
2013-03-16 07:52:00,18.6,15.6,29.97,North,0,6.0,6.0,88,0.00,,,0.00,44,Wunderground v.1.15,2013-03-16 12:52:00,
2013-03-16 08:02:00,18.6,15.6,29.98,North,7,7.0,11.0,88,0.00,,,0.00,51,Wunderground v.1.15,2013-03-16 13:02:00,
2013-03-16 08:12:00,18.6,15.9,29.98,North,7,7.0,8.0,89,0.00,,,0.00,81,Wunderground v.1.15,2013-03-16 13:12:00,
2013-03-16 08:22:00,18.8,16.1,29.98,NNE,16,8.0,8.0,89,0.00,,,0.00,121,Wunderground v.1.15,2013-03-16 13:22:00,
2013-03-16 08:32:00,18.9,15.9,29.99,North,0,7.0,10.0,88,0.00,,,0.00,162,Wunderground v.1.15,2013-03-16 13:32:00,
2013-03-16 08:42:00,19.1,15.9,29.99,North,349,7.0,10.0,87,0.00,,,0.00,162,Wunderground v.1.15,2013-03-16 13:42:00,
2013-03-16 08:52:00,18.8,15.3,30.00,NNE,27,7.0,7.0,86,0.00,,,0.00,176,Wunderground v.1.15,2013-03-16 13:52:00,
2013-03-16 09:02:00,18.8,15.3,30.00,North,10,8.0,8.0,86,0.00,,,0.00,229,Wunderground v.1.15,2013-03-16 14:02:00,
2013-03-16 09:12:00,18.9,15.1,30.00,NNW,339,8.0,8.0,85,0.00,,,0.00,246,Wunderground v.1.15,2013-03-16 14:12:00,
2013-03-16 09:22:00,19.1,15.1,30.01,North,357,8.0,8.0,84,0.00,,,0.00,355,Wunderground v.1.15,2013-03-16 14:22:00,
2013-03-16 09:32:00,19.4,15.1,30.01,North,1,9.0,10.0,83,0.00,,,0.00,391,Wunderground v.1.15,2013-03-16 14:32:00,
2013-03-16 09:42:00,19.7,15.1,30.01,NNW,342,8.0,10.0,82,0.00,,,0.00,406,Wunderground v.1.15,2013-03-16 14:42:00,
2013-03-16 09:52:00,20.0,15.1,30.01,NNW,339,8.0,10.0,81,0.00,,,0.00,440,Wunderground v.1.15,2013-03-16 14:52:00,
2013-03-16 10:02:00,20.2,15.3,30.01,North,8,8.0,10.0,81,0.00,,,0.00,470,Wunderground v.1.15,2013-03-16 15:02:00,
2013-03-16 10:12:00,20.5,15.0,30.01,North,357,8.0,11.0,79,0.00,,,0.00,498,Wunderground v.1.15,2013-03-16 15:12:00,
2013-03-16 10:22:00,20.5,15.3,30.02,NNW,339,8.0,10.0,80,0.00,,,0.00,519,Wunderground v.1.15,2013-03-16 15:22:00,
2013-03-16 10:32:00,20.6,15.1,30.02,North,353,7.0,8.0,79,0.00,,,0.00,538,Wunderground v.1.15,2013-03-16 15:32:00,
2013-03-16 10:42:00,21.0,15.5,30.02,NNE,16,8.0,8.0,79,0.00,,,0.00,561,Wunderground v.1.15,2013-03-16 15:42:00,
2013-03-16 10:52:00,21.1,15.3,30.02,North,359,8.0,11.0,78,0.00,,,0.00,581,Wunderground v.1.15,2013-03-16 15:52:00,
2013-03-16 11:02:00,21.1,15.3,30.02,North,0,9.0,9.0,78,0.00,,,0.00,595,Wunderground v.1.15,2013-03-16 16:02:00,
2013-03-16 11:12:00,21.6,15.2,30.02,North,0,9.0,12.0,76,0.00,,,0.00,614,Wunderground v.1.15,2013-03-16 16:12:00,
2013-03-16 11:22:00,21.8,15.1,30.02,NNW,344,9.0,9.0,75,0.00,,,0.00,630,Wunderground v.1.15,2013-03-16 16:22:00,
2013-03-16 11:32:00,22.2,15.5,30.03,North,354,8.0,11.0,75,0.00,,,0.00,646,Wunderground v.1.15,2013-03-16 16:32:00,
2013-03-16 11:42:00,22.5,14.8,30.03,North,0,8.0,8.0,72,0.00,,,0.00,658,Wunderground v.1.15,2013-03-16 16:42:00,
2013-03-16 11:52:00,22.4,14.4,30.04,North,0,9.0,9.0,71,0.00,,,0.00,669,Wunderground v.1.15,2013-03-16 16:52:00,
2013-03-16 12:02:00,22.7,14.1,30.04,North,349,8.0,8.0,69,0.00,,,0.00,679,Wunderground v.1.15,2013-03-16 17:02:00,
2013-03-16 12:12:00,23.2,14.5,30.04,NNE,14,7.0,10.0,69,0.00,,,0.00,688,Wunderground v.1.15,2013-03-16 17:12:00,
2013-03-16 12:22:00,23.3,14.6,30.04,North,0,7.0,7.0,69,0.00,,,0.00,693,Wunderground v.1.15,2013-03-16 17:22:00,
2013-03-16 12:32:00,23.3,13.6,30.04,NNE,25,8.0,8.0,66,0.00,,,0.00,700,Wunderground v.1.15,2013-03-16 17:32:00,
2013-03-16 12:42:00,23.8,14.4,30.04,North,3,7.0,7.0,67,0.00,,,0.00,706,Wunderground v.1.15,2013-03-16 17:42:00,
2013-03-16 12:52:00,24.2,14.8,30.04,North,11,6.0,6.0,67,0.00,,,0.00,714,Wunderground v.1.15,2013-03-16 17:52:00,
2013-03-16 13:02:00,24.2,14.8,30.04,NNE,18,7.0,10.0,67,0.00,,,0.00,723,Wunderground v.1.15,2013-03-16 18:02:00,
2013-03-16 13:12:00,24.2,14.5,30.04,NNE,25,8.0,12.0,66,0.00,,,0.00,711,Wunderground v.1.15,2013-03-16 18:12:00,
2013-03-16 13:22:00,23.9,13.5,30.04,NE,34,8.0,8.0,64,0.00,,,0.00,702,Wunderground v.1.15,2013-03-16 18:22:00,
2013-03-16 13:32:00,24.5,13.0,30.03,NNE,23,6.0,7.0,61,0.00,,,0.00,699,Wunderground v.1.15,2013-03-16 18:32:00,
2013-03-16 13:42:00,24.5,12.6,30.03,NE,52,6.0,6.0,60,0.00,,,0.00,690,Wunderground v.1.15,2013-03-16 18:42:00,
2013-03-16 13:52:00,25.1,12.8,30.03,NNE,20,5.0,8.0,59,0.00,,,0.00,681,Wunderground v.1.15,2013-03-16 18:52:00,
2013-03-16 14:02:00,25.4,11.9,30.02,NE,44,5.0,5.0,56,0.00,,,0.00,676,Wunderground v.1.15,2013-03-16 19:02:00,
2013-03-16 14:12:00,25.8,11.4,30.02,NE,42,3.0,5.0,54,0.00,,,0.00,667,Wunderground v.1.15,2013-03-16 19:12:00,
2013-03-16 14:22:00,25.4,11.0,30.02,NE,41,6.0,6.0,54,0.00,,,0.00,655,Wunderground v.1.15,2013-03-16 19:22:00,
2013-03-16 14:32:00,26.1,11.3,30.02,NE,49,3.0,3.0,53,0.00,,,0.00,702,Wunderground v.1.15,2013-03-16 19:32:00,
2013-03-16 14:42:00,26.4,9.3,30.02,North,6,3.0,3.0,48,0.00,,,0.00,649,Wunderground v.1.15,2013-03-16 19:42:00,
2013-03-16 14:52:00,27.5,10.8,30.02,NNE,20,1.0,2.0,49,0.00,,,0.00,721,Wunderground v.1.15,2013-03-16 19:52:00,
2013-03-16 15:02:00,27.9,12.5,30.02,North,0,4.0,4.0,52,0.00,,,0.00,730,Wunderground v.1.15,2013-03-16 20:02:00,
2013-03-16 15:12:00,27.9,12.5,30.02,NNW,344,3.0,3.0,52,0.00,,,0.00,630,Wunderground v.1.15,2013-03-16 20:12:00,
2013-03-16 15:22:00,28.5,12.6,30.01,NNW,332,1.0,2.0,51,0.00,,,0.00,591,Wunderground v.1.15,2013-03-16 20:22:00,
2013-03-16 15:32:00,27.8,12.4,30.01,NW,308,4.0,4.0,52,0.00,,,0.00,556,Wunderground v.1.15,2013-03-16 20:32:00,
2013-03-16 15:42:00,27.5,12.6,30.01,NNW,330,4.0,4.0,53,0.00,,,0.00,582,Wunderground v.1.15,2013-03-16 20:42:00,
2013-03-16 15:52:00,27.6,12.2,30.02,West,265,3.0,3.0,52,0.00,,,0.00,521,Wunderground v.1.15,2013-03-16 20:52:00,
2013-03-16 16:02:00,27.0,11.7,30.02,West,277,5.0,5.0,52,0.00,,,0.00,498,Wunderground v.1.15,2013-03-16 21:02:00,
2013-03-16 16:12:00,27.5,12.6,30.02,West,275,3.0,3.0,53,0.00,,,0.00,440,Wunderground v.1.15,2013-03-16 21:12:00,
2013-03-16 16:22:00,28.7,12.8,30.02,WNW,284,1.0,4.0,51,0.00,,,0.00,412,Wunderground v.1.15,2013-03-16 21:22:00,
2013-03-16 16:32:00,28.4,12.1,30.02,WNW,284,3.0,7.0,50,0.00,,,0.00,380,Wunderground v.1.15,2013-03-16 21:32:00,
2013-03-16 16:42:00,27.9,12.5,30.02,WNW,288,4.0,5.0,52,0.00,,,0.00,354,Wunderground v.1.15,2013-03-16 21:42:00,
2013-03-16 16:52:00,27.9,12.1,30.01,NW,305,5.0,5.0,51,0.00,,,0.00,326,Wunderground v.1.15,2013-03-16 21:52:00,
2013-03-16 17:02:00,28.2,12.8,30.01,WNW,302,3.0,4.0,52,0.00,,,0.00,297,Wunderground v.1.15,2013-03-16 22:02:00,
2013-03-16 17:12:00,28.7,12.4,30.01,WNW,302,2.0,2.0,50,0.00,,,0.00,267,Wunderground v.1.15,2013-03-16 22:12:00,
2013-03-16 17:22:00,28.2,12.4,30.00,WNW,302,3.0,5.0,51,0.00,,,0.00,165,Wunderground v.1.15,2013-03-16 22:22:00,
2013-03-16 17:32:00,27.6,12.2,30.01,WNW,294,5.0,6.0,52,0.00,,,0.00,148,Wunderground v.1.15,2013-03-16 22:32:00,
2013-03-16 17:42:00,27.5,12.6,30.01,West,275,5.0,6.0,53,0.00,,,0.00,169,Wunderground v.1.15,2013-03-16 22:42:00,
2013-03-16 17:52:00,27.2,12.3,30.00,West,275,5.0,5.0,53,0.00,,,0.00,143,Wunderground v.1.15,2013-03-16 22:52:00,
2013-03-16 18:02:00,27.2,12.3,30.01,West,274,4.0,4.0,53,0.00,,,0.00,120,Wunderground v.1.15,2013-03-16 23:02:00,
2013-03-16 18:12:00,26.9,12.5,30.01,West,275,4.0,4.0,54,0.00,,,0.00,91,Wunderground v.1.15,2013-03-16 23:12:00,
2013-03-16 18:22:00,26.6,12.6,30.00,West,264,4.0,4.0,55,0.00,,,0.00,63,Wunderground v.1.15,2013-03-16 23:22:00,
2013-03-16 18:32:00,26.4,12.4,30.00,West,263,3.0,4.0,55,0.00,,,0.00,40,Wunderground v.1.15,2013-03-16 23:32:00,
2013-03-16 18:42:00,25.8,12.6,30.00,West,263,3.0,3.0,57,0.00,,,0.00,12,Wunderground v.1.15,2013-03-16 23:42:00,
2013-03-16 18:52:00,25.1,12.4,29.99,West,264,3.0,3.0,58,0.00,,,0.00,5,Wunderground v.1.15,2013-03-16 23:52:00,
2013-03-16 19:02:00,24.8,12.1,30.00,West,264,3.0,3.0,58,0.00,,,0.00,0,Wunderground v.1.15,2013-03-17 00:02:00,
2013-03-16 19:12:00,24.7,12.4,30.00,West,264,3.0,3.0,59,0.00,,,0.00,0,Wunderground v.1.15,2013-03-17 00:12:00,
2013-03-16 19:22:00,24.4,12.5,30.00,West,264,3.0,3.0,60,0.00,,,0.00,0,Wunderground v.1.15,2013-03-17 00:22:00,
2013-03-16 19:32:00,23.9,12.4,30.00,West,263,3.0,3.0,61,0.00,,,0.00,0,Wunderground v.1.15,2013-03-17 00:32:00,
2013-03-16 19:42:00,23.8,12.3,30.00,West,264,2.0,2.0,61,0.00,,,0.00,0,Wunderground v.1.15,2013-03-17 00:42:00,
2013-03-16 19:52:00,23.6,12.1,30.00,West,264,2.0,2.0,61,0.00,,,0.00,0,Wunderground v.1.15,2013-03-17 00:52:00,
2013-03-16 20:02:00,23.3,12.2,30.01,West,264,3.0,5.0,62,0.00,,,0.00,0,Wunderground v.1.15,2013-03-17 01:02:00,
2013-03-16 20:12:00,22.9,12.2,30.01,West,264,3.0,3.0,63,0.00,,,0.00,0,Wunderground v.1.15,2013-03-17 01:12:00,
2013-03-16 20:22:00,22.2,12.2,30.02,West,264,3.0,3.0,65,0.00,,,0.00,0,Wunderground v.1.15,2013-03-17 01:22:00,
2013-03-16 20:32:00,22.2,12.6,30.02,West,264,1.0,3.0,66,0.00,,,0.00,0,Wunderground v.1.15,2013-03-17 01:32:00,
2013-03-16 20:52:00,22.7,13.0,30.03,West,264,3.0,3.0,66,0.00,,,0.00,0,Wunderground v.1.15,2013-03-17 01:52:00,
2013-03-16 21:02:00,22.7,13.0,30.04,West,264,4.0,4.0,66,0.00,,,0.00,0,Wunderground v.1.15,2013-03-17 02:02:00,
2013-03-16 21:12:00,22.5,12.8,30.04,West,264,3.0,3.0,66,0.00,,,0.00,0,Wunderground v.1.15,2013-03-17 02:12:00,
2013-03-16 21:22:00,22.9,12.9,30.06,West,264,3.0,10.0,65,0.00,,,0.00,0,Wunderground v.1.15,2013-03-17 02:22:00,
2013-03-16 21:42:00,24.4,12.9,30.07,NNW,332,7.0,7.0,61,0.00,,,0.00,0,Wunderground v.1.15,2013-03-17 02:42:00,
2013-03-16 21:52:00,24.2,12.7,30.07,NNW,344,6.0,6.0,61,0.00,,,0.00,0,Wunderground v.1.15,2013-03-17 02:52:00,
2013-03-16 22:02:00,24.1,12.2,30.08,NNW,340,5.0,6.0,60,0.00,,,0.00,0,Wunderground v.1.15,2013-03-17 03:02:00,
2013-03-16 22:12:00,23.8,12.7,30.08,NNW,340,5.0,6.0,62,0.00,,,0.00,0,Wunderground v.1.15,2013-03-17 03:12:00,
2013-03-16 22:22:00,23.6,12.8,30.08,NNW,332,5.0,5.0,63,0.00,,,0.00,0,Wunderground v.1.15,2013-03-17 03:22:00,
2013-03-16 22:32:00,23.6,12.8,30.09,NNW,337,5.0,5.0,63,0.00,,,0.00,0,Wunderground v.1.15,2013-03-17 03:32:00,
2013-03-16 22:42:00,23.8,12.7,30.09,NNW,343,5.0,5.0,62,0.00,,,0.00,0,Wunderground v.1.15,2013-03-17 03:42:00,
2013-03-16 22:52:00,24.1,12.9,30.09,NNW,342,4.0,4.0,62,0.00,,,0.00,0,Wunderground v.1.15,2013-03-17 03:52:00,
2013-03-16 23:02:00,24.4,13.2,30.09,NNW,342,5.0,6.0,62,0.00,,,0.00,0,Wunderground v.1.15,2013-03-17 04:02:00,
2013-03-16 23:12:00,24.5,13.3,30.09,NNW,342,5.0,8.0,62,0.00,,,0.00,0,Wunderground v.1.15,2013-03-17 04:12:00,
2013-03-16 23:22:00,24.7,13.1,30.09,NNW,346,6.0,6.0,61,0.00,,,0.00,0,Wunderground v.1.15,2013-03-17 04:22:00,
2013-03-16 23:32:00,24.7,12.0,30.10,North,349,7.0,11.0,58,0.00,,,0.00,0,Wunderground v.1.15,2013-03-17 04:32:00,
2013-03-16 23:42:00,23.8,15.1,30.10,North,357,11.0,13.0,69,0.00,,,0.00,0,Wunderground v.1.15,2013-03-17 04:42:00,
2013-03-16 23:52:00,22.5,14.2,30.11,NNW,346,10.0,11.0,70,0.00,,,0.00,0,Wunderground v.1.15,2013-03-17 04:52:00,